Regional Weather Roundup
Issued by NWS

Home | Current Version | Previous Version | Text Only | Print | Product List | Glossary On
Versions: 1 2 3 4 5 6 7 8 9 10 11 12 13 14 15 16 17 18 19 20 21 22 23 24 25 26 27 28 29 30 31 32 33 34 35 36 37 38 39 40 41 42 43 44 45 46 47 48 49 50
000
ASUS46 KLOX 270512
RWRCA

SOUTHERN CALIFORNIA WEATHER ROUNDUP
NATIONAL WEATHER SERVICE OXNARD CALIFORNIA
1000 PM PDT THU MAR 26 2015

NOTE: "FAIR" INDICATES FEW OR NO CLOUDS BELOW 12,000 FEET WITH NO
SIGNIFICANT WEATHER AND/OR OBSTRUCTIONS TO VISIBILITY.

  -  STATIONS PRECEEDED BY AN ASTERISK (*) ARE NOT NWS OR FAA
     STATIONS AND ARE NOT SUBJECT TO NWS AND FAA QUALITY CONTROL.

CAZ041-042-087-270600-
LA AND ORANGE COUNTY COASTAL AREAS


CITY           SKY/WX    TMP DP  RH WIND       PRES   REMARKS
L.A. DOWNTOWN  CLEAR     73  47  39 CALM      30.02S
L.A. AIRPORT   CLEAR     67  53  61 W5        30.03S
LONG BEACH     CLEAR     72  49  44 CALM      30.03R

CITY           SKY/WX    TMP DP  RH WIND       PRES   REMARKS
AVALON           N/A     63 N/A N/A MISG        N/A
FULLERTON      CLEAR     74  38  27 CALM      30.02R
*GETTY CENTER    N/A    N/A N/A N/A N3G10       N/A
HAWTHORNE      CLEAR     73  52  47 CALM      30.03R
*LEO CARRILLO    N/A     72  26  18 NW2G14      N/A
*LOS ALAMITOS  CLEAR     67  47  47 S3        30.03R
*REDONDO BEACH   N/A     67  48  49 SW1       30.04S
SANTA ANA      CLEAR     70  49  47 CALM      30.03R
STA MONICA APT CLEAR     71  51  49 CALM      30.03S
*STA MON PIER    N/A     67  59  74 SW1       30.01S
*UCLA            N/A     72  34  25 NW6       30.01S

$$

CAZ547-548-048-270600-
LA COUNTY VALLEYS AND INLAND EMPIRE


CITY           SKY/WX    TMP DP  RH WIND       PRES   REMARKS
BURBANK        CLEAR     76  33  21 NW5       30.05S
VAN NUYS       CLEAR     75  33  21 NW5       30.06R

CITY           SKY/WX    TMP DP  RH WIND       PRES   REMARKS
CORONA AIRPORT CLEAR     65  37  35 CALM      30.06R
*CHATSWORTH      N/A     73  40  30 CALM      30.04S
CHINO          CLEAR     71  40  32 SW3       30.06S
*CLAREMONT       N/A     67  35  29 N2          N/A
MARCH AFB      CLEAR     64  35  33 CALM      30.10R
*NORTHRIDGE      N/A     70  34  26 CALM        N/A
ONTARIO        CLEAR     75  32  20 SW5       30.06R
*PASADENA        N/A     75  39  27 CALM        N/A
RIVERSIDE      CLEAR     75  36  24 E3        30.07R
SAN BERNARDINO NOT AVBL
*SAN RAFAEL HI   N/A     74  23  15 N7          N/A
*SAUGUS          N/A     78  31  18 W5          N/A
*WHITEMAN AP   NOT AVBL
*WHITTIER HILL   N/A     76  29  18 N7G18       N/A
*WOODLAND HILL   N/A     72  32  23 S2          N/A

$$

CAZ054-055-270600-
LA AND SAN BERNARDINO COUNTY MOUNTAINS


CITY           SKY/WX    TMP DP  RH WIND       PRES   REMARKS
*ACTON           N/A     62  23  22 N6          N/A
*BIG BEAR AIRP CLEAR     37  21  52 CALM      30.38R
*BIG PINES       N/A     49  20  31 CALM        N/A
*CHILAO          N/A     61  22  22 NE6         N/A
MT WILSON NWS    N/A     61  27  27 MISG        N/A
SANDBERG       CLEAR     66  27  23 N5        30.27R
*WARM SPRINGS    N/A     67  25  20 NE9         N/A

$$

CAZ028-029-059-060-099-270600-
ANTELOPE VALLEY AND SURROUNDING AREAS


CITY           SKY/WX    TMP DP  RH WIND       PRES   REMARKS
LANCASTER      CLEAR     55  27  34 W7        30.16R
PALMDALE       CLEAR     61  30  31 SW8       30.17R
*POPPY PARK      N/A     57  29  34 NW3         N/A

CITY           SKY/WX    TMP DP  RH WIND       PRES   REMARKS
29 PALMS       CLEAR     69  23  17 CALM      30.20R
BARSTOW/DAGGET CLEAR     66  25  21 W5        30.13R
BISHOP         CLEAR     62  23  22 S9        30.22R
CHINA LAKE     CLEAR     62  27  26 SW9       30.15R
EDWARDS AFB    CLEAR     66  24  20 CALM      30.13R
MOJAVE         FAIR      63  32  31 NW8       30.18R
NEEDLES        CLEAR     75  20  12 NW9       30.08R
VICTORVILLE    CLEAR     61  21  21 SW6       30.18S

$$

CAZ039-040-270600-
VENTURA AND SANTA BARBARA COUNTY COAST


CITY           SKY/WX    TMP DP  RH WIND       PRES   REMARKS
CAMARILLO      CLEAR     64  49  57 NE5       30.05R
NWS OXNARD       N/A     64  50  61 CALM      30.04S
OXNARD AIRPORT CLEAR     65  54  67 NE3       30.04S
*POINT MUGU    CLEAR     64  51  62 NE6       30.05S
SBA APT/GOLETA CLEAR     62  57  83 SE5       30.03R
*SANTA BARBARA   N/A     70  51  52 CALM      30.11R
*VENTURA         N/A     65  48  52 CALM      30.08S

$$

CAZ044-045-270600-
VENTURA COUNTY VALLEYS


CITY           SKY/WX    TMP DP  RH WIND       PRES   REMARKS
*SIMI VALLEY     N/A     64  42  43 CALM      30.02R
*OJAI            N/A     58  42  57 CALM      30.00S
*FILLMORE        N/A     62  46  55 CALM      29.96R

$$

CAZ053-270600-
VENTURA COUNTY MOUNTAINS


CITY           SKY/WX    TMP DP  RH WIND       PRES   REMARKS
*LOCKWOOD VLY    N/A     45  25  45 MISG        N/A
*ROSE VALLEY     N/A     46  36  66 MISG        N/A

$$

CAZ034-035-036-270600-
CENTRAL COAST AND SANTA YNEZ VALLEY


CITY           SKY/WX    TMP DP  RH WIND       PRES   REMARKS
SAN LUIS OBISP CLEAR     60  49  66 W3        30.08R
SANTA MARIA    CLEAR     63  45  51 CALM      30.08S

CITY           SKY/WX    TMP DP  RH WIND       PRES   REMARKS
*CAL POLY SLO    N/A     59  45  58 CALM        N/A
*LOMPOC        CLEAR     57  45  62 E3        30.09S
*PISMO BEACH     N/A     61  53  74 CALM      30.07R
*SANTA YNEZ    FAIR      63  37  39 CALM      30.10R

$$

CAZ037-038-051-270600-
SAN LUIS OBISPO COUNTY INTERIOR AND CUYAMA VALLEY


CITY           SKY/WX    TMP DP  RH WIND       PRES   REMARKS
*CUYAMA          N/A     65  40  40 CALM      30.09R
PASO ROBLES    CLEAR     63  37  38 CALM      30.10R

$$

CAZ032-033-061-270600-
SOUTHERN DESERTS


CITY           SKY/WX    TMP DP  RH WIND       PRES   REMARKS
BLYTHE         CLEAR     69  30  23 N7        30.04R
IMPERIAL       CLEAR     72  37  28 CALM      30.01R
PALM SPRINGS   CLEAR     79  26  14 N6        30.06R
THERMAL        CLEAR     68  41  37 NW5       30.00R

$$

ELSEWHERE ACROSS THE WESTERN UNITED STATES AND MEXICO


CITY           SKY/WX    TMP DP  RH WIND       PRES   REMARKS
DENVER, CO     CLOUDY    47  31  53 E16       30.17R
GRAND CANYON,  CLEAR     31  17  56 NE3       30.37R
HONOLULU, HI   PTCLDY    73  63  68 NE14      30.13R
KAHULUI, MAUI  CLOUDY    73  64  73 NE17G28   30.14R
LAKE TAHOE, CA CLEAR     47  34  60 MISG      30.35R
LAS VEGAS, NV  CLEAR     69  28  21 W7        30.12S
MAMMOTH LAKES, FAIR      43  25  49 CALM      30.39R
MEXICO CITY, M PTCLDY    63  41  45 CALM      30.34R
PHOENIX, AZ    CLEAR     80  24  12 W6        30.04R
PORTLAND, OR   CLEAR     56  51  84 CALM      30.12R
RENO, NV       CLEAR     61  32  33 W6        30.27R
SALT LAKE CITY PTCLDY    48  32  53 SE5       30.34R
SAN DIEGO, CA  CLEAR     72  47  40 N5        30.05R
SAN FRANCISCO, CLEAR     64  54  69 W13       30.09R
SAN JOSE, CA   CLEAR     65  55  70 W6        30.09R
SEATTLE, WA    PTCLDY    56  49  77 N9        30.16R
TIJUANA, MEX   CLEAR     66  48  52 W5        30.08R

$$

STATION/POSITION TIME  TEMP    WIND        PRES    VSBY  WAVE
                       AIR SEA DIR/SP/G                  HT/PER
                 (UTC) (F)     (DEG/KT/KT) (MB)    (MI)  (FT/S)
POINT ARGUELLO B NOT AVBL
WEST SANTA BARBA 0500   62 60  330/ 14/ 16 1017.0R         5/11
POINT CONCEPTION NOT AVBL
EAST SANTA BARBA NOT AVBL
SANTA MONICA BAY 0500   65 63  350/  8/  8 1017.3R         3/16


USA.gov is the U.S. government's official web portal to all federal, state and local government web resources and services.